Regional Weather Roundup
Issued by NWS

Home | Current Version | Previous Version | Graphics & Text | Print | Product List | Glossary On
Versions: 1 2 3 4 5 6 7 8 9 10 11 12 13 14 15 16 17 18 19 20 21 22 23 24 25 26 27 28 29 30 31 32 33 34 35 36 37 38 39 40 41 42 43 44 45 46 47 48 49 50
000
ASUS43 KMKX 210000
RWRWI

WISCONSIN REGIONAL WEATHER ROUNDUP
NATIONAL WEATHER SERVICE MILWAUKEE/SULLIVAN WI
700 PM CDT SUN APR 20 2014

NOTE: "FAIR" INDICATES FEW OR NO CLOUDS BELOW 12,000 FEET WITH NO
SIGNIFICANT WEATHER AND/OR OBSTRUCTIONS TO VISIBILITY.

WIZ001-002-006>008-014>016-023>028-210100-
NORTHWEST WISCONSIN

CITY           SKY/WX    TMP DP  RH WIND       PRES   REMARKS
SUPERIOR ARPT  CLEAR     57  37  46 CALM      29.98S
ASHLAND        CLEAR     50  39  66 N6        30.01F
6HR MIN TEMP:  50; 6HR MAX TEMP:  60;

HAYWARD        CLEAR     67  28  23 VRB3      29.98S
6HR MIN TEMP:  66; 6HR MAX TEMP:  71;

SIREN          CLEAR     69  29  22 NW5       29.98S
RICE LAKE      PTCLDY    68  46  45 SE5       29.98S
LADYSMITH      CLEAR     67  52  58 S9        29.99F
EAU CLAIRE     NOT AVBL
MENOMONIE      CLEAR     68  51  53 SE8       29.97F
NEW RICHMOND   CLEAR     70  47  43 SE3       29.96F
OSCEOLA        SUNNY     71  36  27 N6        29.97F
$$

WIZ003>005-009-010-017-018-210100-
NORTH CENTRAL WISCONSIN

CITY           SKY/WX    TMP DP  RH WIND       PRES   REMARKS
WOODRUFF       CLEAR     64  46  50 S9        29.99S
RHINELANDER    MOCLDY    57  49  74 S7        30.01S
6HR MIN TEMP:  57; 6HR MAX TEMP:  64;

EAGLE RIVER    CLEAR     63  47  57 SW8       29.99S
LAND O LAKES   PTCLDY    62  33  34 N8        30.00R
PHILLIPS       CLEAR     64  52  65 S12       29.98R
TOMAHAWK       CLOUDY    57  50  77 CALM      30.01F
MEDFORD        CLOUDY    56  53  89 S6        30.01F
MERRILL        CLOUDY    57  52  83 CALM      30.02S
$$

WIZ029-030-035-036-043>047-210100-
CENTRAL WISCONSIN

CITY           SKY/WX    TMP DP  RH WIND       PRES   REMARKS
WAUSAU         CLOUDY    57  52  83 CALM      30.00F
6HR MIN TEMP:  56; 6HR MAX TEMP:  61; 6HR PCP: TRACE;

MOSINEE        CLOUDY    57  54  88 CALM      30.03
MARSHFIELD     CLOUDY    59  54  83 S5        30.01F
6HR MIN TEMP:  54; 6HR MAX TEMP:  61; 6HR PCP:  0.02;

STEVENS POINT  CLOUDY    58  52  80 S3        30.03S
WAUPACA        CLOUDY    61  54  77 CALM      30.03S
WAUTOMA        NOT AVBL
WISC RAPIDS    CLOUDY    59  52  77 NW3       30.02F
6HR MIN TEMP:  53; 6HR MAX TEMP:  61; 6HR PCP:  0.01;

CAMP DOUGLAS   NOT AVBL
$$

WIZ011>013-019>022-031-037>040-048>050-210100-
NORTHEAST WISCONSIN

CITY           SKY/WX    TMP DP  RH WIND       PRES   REMARKS
ANTIGO         CLOUDY    55  50  85 S7        30.03F
STURGEON BAY   CLOUDY    46  39  76 S6        30.05F
6HR MIN TEMP:  39; 6HR MAX TEMP:  46; 6HR PCP:  0.01;

GREEN BAY      CLOUDY    58  53  84 CALM      30.04F
6HR MIN TEMP:  52; 6HR MAX TEMP:  58; 6HR PCP:  0.06;

MANITOWOC      NOT AVBL
APPLETON       MOCLDY    55  52  88 CALM      30.03F
CLINTONVILLE   MOCLDY    59  52  77 CALM      30.03F
OSHKOSH        CLOUDY    55  50  83 CALM      30.02F
6HR MIN TEMP:  55; 6HR MAX TEMP:  65; 6HR PCP:  0.06;

$$

WIZ032>034-041-042-053>061-210100-
SOUTHWEST WISCONSIN

CITY           SKY/WX    TMP DP  RH WIND       PRES   REMARKS
LA CROSSE      MOCLDY    60  54  80 CALM      29.97F
6HR MIN TEMP:  54; 6HR MAX TEMP:  62; 6HR PCP:  0.05;

SPARTA         CLOUDY    61  54  77 CALM      30.01F
VIROQUA        FAIR      61  59  93 E3        30.00F
BOSCOBEL       CLOUDY    61  56  83 NE3       29.95F
6HR MIN TEMP:  60; 6HR MAX TEMP:  70; 6HR PCP:  0.06;

PRAIRIE DU CHI LGT RAIN  59  56  89 W7        29.96F
PLATTEVILLE    FAIR      73  49  41 E5        30.01F
$$

WIZ056-057-062-063-064-067-068-210100-
SOUTH CENTRAL WISCONSIN

CITY           SKY/WX    TMP DP  RH WIND       PRES   REMARKS
BARABOO/DELLS  CLOUDY    59  55  86 CALM      30.00S
LONE ROCK      NOT AVBL
WATERTOWN      LGT RAIN  68  49  50 NE3       30.01F
MADISON        CLOUDY    66  51  58 SE7       30.00F
6HR MIN TEMP:  66; 6HR MAX TEMP:  78; 6HR PCP: TRACE;

MIDDLETON      MOCLDY    67  46  46 SE7       30.00F
MONROE         MOCLDY    74  44  34 S10       30.00F
6HR MIN TEMP:  74; 6HR MAX TEMP:  79;

JANESVILLE     CLEAR     77  37  24 SW12      30.00F
$$

WIZ051-052-058>065-066-070>072-210100-
SOUTHEAST WISCONSIN

CITY           SKY/WX    TMP DP  RH WIND       PRES   REMARKS
MILWAUKEE      CLOUDY    67  39  35 S12       30.04F
6HR MIN TEMP:  67; 6HR MAX TEMP:  75;

WAUKESHA       MOCLDY    73  41  31 SW9       30.02F
MILWAUKEE/TIMM CLOUDY    70  37  30 SE14G21   30.03F
RACINE         MOCLDY    60  37  42 S12       30.05F
6HR MIN TEMP:  59; 6HR MAX TEMP:  66;

BURLINGTON     MOCLDY    73  42  32 SW6       30.02F
KENOSHA        PTCLDY    66  39  37 SE12      30.04F
6HR MIN TEMP:  66; 6HR MAX TEMP:  77;

FOND DU LAC    CLOUDY    56  48  74 CALM      30.02F
6HR MIN TEMP:  56; 6HR MAX TEMP:  69; 6HR PCP:  0.02;

SHEBOYGAN      CLOUDY    55  41  59 CALM      30.04F
6HR MIN TEMP:  54; 6HR MAX TEMP:  63; 6HR PCP: TRACE;

WEST BEND      CLOUDY    63  41  45 CALM      30.03F
JUNEAU         LGT RAIN  63  46  53 N6        30.03F
$$

LSZ147-162-210100-
LAKE SUPERIOR

STATION/POSITION TIME  TEMP    WIND        PRES    WAVE
                       AIR SEA DIR/SP/G            HT/PER
                 (UTC) (F)     (DEG/KT/KT) (MB)    (FT/S)
DEVILS ISLAND    2300   52      40/  3/  5 1016.4F
PORT WING        2300           40/  2/  4 1015.9S
SAXON HARBOR     2300             CALM     1016.3S
$$

LMZ867-665-643>646-210100-
LAKE MICHIGAN

STATION/POSITION TIME  TEMP    WIND        PRES    WAVE
                       AIR SEA DIR/SP/G            HT/PER
                 (UTC) (F)     (DEG/KT/KT) (MB)    (FT/S)
NORTHPORT PIER   2300   43     150/  6/  8 1017.3F
SISTER BAY       2309   49     170/  9/ 11   N/A
KEWAUNEE LAKESHO 2300   39     170/  7/  8 1018.8F
SHEBOYGAN LAKESH 2300   46     160/  5/  5 1018.4F
PORT WASHINGTON  2300   48     160/  4/  7 1017.9F
MILWAUKEE LAKESH 2300   50     140/ 13/ 14   N/A
KENOSHA   LAKESH 2300   53     180/ 14/ 16   N/A
$$

TC  - TEMPERATURE IN CELSIUS
VSB - VISIBILITY IN STATUTE MILES
WCI - WIND CHILL INDEX
HX  - HEAT INDEX




USA.gov is the U.S. government's official web portal to all federal, state and local government web resources and services.